sat.trackr.live / text

‹ back to catalog

STARLINK-35441

NORAD 65869 · 2025-223R

PAYLOAD ACTIVE UNKNOWN

§ Identity

Operator
Country
US
Launch date
2025-10-03
Launch site
AFWTR
Launch vehicle
Mass (kg)
RCS (m²)

Purposes: comms

External: N2YO · Heavens-Above · Gunter

§ Orbital elements

Epoch: 2026-05-25T04:00:03.998880Z

Period
93.85 min
Inclination
53.1602°
Eccentricity
0.0000858
Mean motion
15.34380964 rev/d
Perigee alt
462.2 km
Apogee alt
463.3 km
Semi-major
6,840.9 km
B*
2.6264e-4
RAAN
298.8822°
Arg perigee
96.2099°
Mean anomaly
332.9138°
Rev number
585

§ Raw data

STARLINK-354411 65869U 25223R   26145.16671295  .00008502  00000+0  26264-3 0  99902 65869  53.1602 298.8822 0000858  96.2099 332.9138 15.34380964  5858

JSON: /api/v1/satellites/65869 · /tle

For live sub-satellite position, see the globe view (requires WebGL).

§ Visibility from observer

Set your observer location to see the next 7 days of passes ≥ 10°. The values pass through the URL so the page stays shareable.

No JS? Fill the form by hand. The geolocation button needs JavaScript.